Location: East Irvine
(33.6759°N, 117.7598°W)
Time: 01:32:14
(UTC+00:00)

Okean 1 Rocket - Pass Details

Date: 15 November 2025
Orbit: 599 x 628 km, 82.5° (Epoch: 07 December)

Event Time Altitude Azimuth Distance (km) Brightness Sun altitude
Rises 02:36:33 0° 186° (S) 2,895 6.7 -22.5°
Reaches altitude 10° 02:38:46 10° 186° (S) 1,989 5.8 -23.0°
Maximum altitude 02:43:11 88° 276° (W) 627 3.0 -23.9°
Enters shadow 02:43:47 67° 1° (N) 676 3.1 -24.0°
